FENGYUN 1C DEB, 31655

Orbit data source: Space-Track

FENGYUN 1C DEB, 31655 is space debris in SSO originally from a launch on Mon, 10 May 1999 UTC launched from the Taiyaun Space Center, China (TSC). Fengyun 1C debris stems from the Chinese weather satellite Fengyun-1C, which was intentionally destroyed by a Chinese anti-satellite missile in 2007. This event dramatically increased the amount of space debris, with thousands of trackable fragments posing hazards to satellites and human spaceflight. The Fengyun 1C debris cloud has become a focal point in discussions about space sustainability and the need for international regulations to prevent the creation of new debris.

Loading next visibility...
Identifier
31655, 1999-025CBM
Orbit
SSO
Country
Flag of CNCN / PRC
Related business
Manufacturer
Unknown
Mission
Spacecraft
Bus & Motor
Unknown
Mass
Unknown
Launch date (UTC)
1999-05-10 (27 years ago)
Launch vehicle
Unknown
Launch site
Taiyaun Space Center, China (TSC)
Object type
Payload
Rocket body
Debris
Shape & HBR
Unknown shape, 0.1 m
Radar Cross Section
Small (<0.1 m²)

Expand to show TLE details & history
Last TLE update: 1 week ago

TLE from 1 week ago
0 FENGYUN 1C DEB
1 31655U 99025CBM 26229.10676273  .00001424  00000-0  13673-2 0  9991
2 31655  99.2744 169.5238 0281953 218.9518 153.8532 13.65635156630943
Epoch: 2026-08-17T02:33Z
TLE epoch observation values (Epoch: 2026-08-17T02:33:44.299Z)
Latitude
13.96571°
Longitude
163.27977°
Altitude
1,205.636 km
Speed
7.159 km/s
True Right ascension
11h 08m 49s
True Declination
13° 53' 24"
Sunlit
Object was in daylight at epoch
Visualization orbit readout
Latitude
Unknown
Longitude
Unknown
Altitude
Unknown
Speed
Unknown
Apparent Right ascension
Unknown
Apparent Declination
Unknown
Sunlit
N/A
Visualization observer readout
Local Sidereal Time
03:00:41
Azimuth
Unknown
Elevation
Unknown
Doppler factor
Unknown
Orbital elements
Apogee altitude
1,220.921 km
Perigee altitude
804.156 km
Semi-major axis
7,390.676 km
Eccentricity
0.0282
Inclination
99.2744°
RAAN
169.5238°
Arg. of periapsis
218.9518°
True anomaly
155.23314°
Mean anomaly
153.8532°
Eccentric anomaly
154.54747°
Mean motion
3.41599 °/min
Orbital period
105.39 mins
BSTAR
0.0013673
Loading maneuver chart data...
Computing Atmospheric mass density...

Documentation

Showing up to 5 results
|